Lexington Weather

Lexington, Massachusetts, USA

73°F
8/7/2020 11:35am 
  • Lexington Conditions: Clear
  • Temperature: 73.0°F / 22.8°CWarmer 2.3°F than last hour.
  • Dew Point: 63.5°FIncreased 1.1°Fsince last hour.
  • Relative Humidity: 72%Decreased 3.0% since last hour.
  • Wind: Calm, 10-min avg: Calm, gust: 2 mph
  • Barometer: 30.13 inFalling 0.02  inHg/hr Falling Slowly
  • Visibility: 10 miles
  • Rain Today: 0.00 in
  •   

Regional Weather Roundup
for Boston / Norton, MA

        
000
ASUS41 KBOX 011604
RWRBOX

REGIONAL WEATHER ROUNDUP
NATIONAL WEATHER SERVICE BOSTON/NORTON MA
1200 PM EDT SAT AUG 01 2020

NOTE:  "FAIR" INDICATES FEW OR NO CLOUDS BELOW 12,000 FEET WITH NO 
SIGNIFICANT WEATHER AND/OR OBSTRUCTIONS TO VISIBILITY.

MAZALL-011700-
EASTERN MASSACHUSETTS
  
CITY           SKY/WX    TMP DP  RH WIND       PRES   REMARKS
BOSTON         MOSUNNY   77  63  61 SE10      29.95R                  
BEVERLY        SUNNY     84  60  44 N6        29.94S                  
LAWRENCE       SUNNY     84  64  50 N6        29.96F                  
BEDFORD        SUNNY     84  62  47 VRB3      29.94S                  
BLUE HILL      NOT AVBL                                               
NORWOOD        SUNNY     85  64  49 VRB5      29.93F                  
MARSHFIELD     SUNNY     79  68  69 N8        29.94S                  
PLYMOUTH       SUNNY     83  65  54 NE9       29.94S                  
TAUNTON        MOSUNNY   88  64  44 N3        29.93S                  
NEW BEDFORD    PTSUNNY   88  64  44 CALM      29.93S                  
$$

MAZALL-011700-
CAPE COD AND THE ISLANDS
  
CITY           SKY/WX    TMP DP  RH WIND       PRES   REMARKS
FALMOUTH       MOSUNNY   84  63  48 E7G14     29.94S                  
HYANNIS        SUNNY     85  63  47 NE9       29.93S                  
CHATHAM        SUNNY     86  63  45 VRB5      29.95R                  
PROVINCETOWN   SUNNY     79  71  76 N8        29.95S                  
NANTUCKET      SUNNY     79  69  71 S13       29.95R                  
MARTHAS VNYRD  PTSUNNY   81  67  62 S9        29.94S                  
$$
 
MAZALL-011700-
CENTRAL AND WESTERN MASSACHUSETTS
  
CITY           SKY/WX    TMP DP  RH WIND       PRES   REMARKS
WORCESTER      MOSUNNY   81  59  47 CALM      29.99S                  
FITCHBURG      SUNNY     83  58  42 VRB7      29.96S                  
ORANGE         SUNNY     85  58  39 NW8       29.98S                  
SPRINGFIELD    MOSUNNY   83  62  48 CALM      29.95F                  
WESTFIELD      SUNNY     85  60  42 N6        29.96F                  
NORTH ADAMS    SUNNY     82  59  45 N8        29.98S                  
PITTSFIELD     SUNNY     82  61  48 W8        29.99F                  
$$
 
RIZALL-011700-
RHODE ISLAND
  
CITY           SKY/WX    TMP DP  RH WIND       PRES   REMARKS
PROVIDENCE     MOSUNNY   87  59  38 VRB6      29.94S                  
NEWPORT        SUNNY     85  63  47 W7        29.95S                  
BLOCK ISLAND   MOSUNNY   83  68  60 SW5       29.96S                  
SMITHFIELD     MOSUNNY   84  64  50 VRB3      29.96S                  
WESTERLY       SUNNY     84  68  58 S8        29.95S                  
$$
 
CTZALL-011700-
CONNECTICUT
  
CITY           SKY/WX    TMP DP  RH WIND       PRES   REMARKS
BRADLEY INTL   MOSUNNY   85  56  37 VRB6      29.95S                  
HARTFORD       MOSUNNY   84  59  42 CALM      29.95S                  
BRIDGEPORT     SUNNY     83  67  58 VRB5      29.96S                  
DANBURY        SUNNY     83  60  45 E5        29.99R                  
GROTON         MOSUNNY   80  69  69 SW9       29.94S                  
NEW HAVEN      SUNNY     85  68  56 S9        29.96R                  
CHESTER        NOT AVBL                                               
MERIDEN        SUNNY     87  59  38 MISG      29.95S                  
WILLIMANTIC    SUNNY     85  60  42 VRB5      29.95S                  
OXFORD         MOSUNNY   83  63  50 N6        29.99S                  
$$

MEZ002-015-021-024-NHZ003-005-008-011-012-014-VTZ005-008-011700-
NORTHERN NEW ENGLAND
  
CITY           SKY/WX    TMP DP  RH WIND       PRES   REMARKS
PORTLAND ME    MOSUNNY   84  59  42 NW7       29.93                   
BANGOR ME      MOSUNNY   81  61  50 N8        29.92S                  
CONCORD NH     SUNNY     83  59  44 W8        29.95F                  
MANCHESTER NH  MOSUNNY   85  58  39 W5        29.94S                  
NASHUA NH      SUNNY     84  60  44 VRB6      29.95F                  
PORTSMOUTH NH  MOSUNNY   82  57  43 S6        29.93S                  
JAFFREY NH     SUNNY     80  56  43 CALM      30.00S                  
KEENE NH       SUNNY     81  62  52 CALM      29.97F                  
BURLINGTON VT  MOSUNNY   81  59  47 NW6       29.97S                  
MT. WASHINGTON FOG       55  50  82 NW5         N/A  VSB 1            
$$

NYZ052-076-011700-
EASTERN NEW YORK
  
CITY           SKY/WX    TMP DP  RH WIND       PRES   REMARKS
ALBANY         MOSUNNY   78  63  59 CALM      29.97F                  
NEW YORK CITY  PTSUNNY   85  64  49 NE7       29.95S                  
$$
 
ANZALL-011700-
MARINE OBSERVATIONS
  
STATION/POSITION TIME  TEMP    WIND        PRES    VSBY  WAVE
                       AIR SEA DIR/SP/G                  HT/PER
                 (UTC) (F)     (DEG/KT/KT) (MB)    (MI)  (FT/S)
BOSTON BUOY      1550   73 74   20/  6/  6 1012.8R         1/ 9
BUZZARDS BAY     1500          170/  4/  4 1015.0R
NANTUCKET SOUND  1540      78   30/  2/  4 1013.1
MASS BAY-STELLWA 1504   71      40/ 10/ 10 1011.7R  1 7/8  2/ 8
ISLE OF SHOALS   1500   72      80/  4/  6 1013.9R
S OF BLOCK IS    1526      75                N/A           3/13
$$

......................KEY.........................
  SKY/WX - SKY CONDITION/PRESENT WEATHER
  TMP    - TEMPERATURE IN FAHRENHEIT
  DWPT   - DEWPOINT IN FAHRENHEIT
  RH     - RELATIVE HUMIDITY IN PERCENT
  WIND   - DIRECTION AND SPEED IN MPH
  PRES   - MEAN SEA LEVEL PRESSURE IN INCHES OF HG
  WCI    - WIND CHILL INDEX
  VSB    - VISIBILITY IN MILES
  HX     - HEAT INDEX
  TC     - TEMPERATURE IN CELSIUS
  VRB    - VARIABLE WIND DIRECTION
  N/A    - NOT AVAILABLE
  
      

Other recent Regional Weather Roundups

Fri Aug 7, 11:04am

Fri Aug 7, 10:04am

Fri Aug 7, 9:04am

Fri Aug 7, 8:04am

Fri Aug 7, 7:04am

Fri Aug 7, 6:04am

Fri Aug 7, 5:04am

Fri Aug 7, 4:04am

Fri Aug 7, 3:04am

Fri Aug 7, 2:04am

Fri Aug 7, 1:05am

Fri Aug 7, 12:04am

Thu Aug 6, 11:04pm

Thu Aug 6, 10:04pm

Thu Aug 6, 9:04pm

Thu Aug 6, 8:04pm

Thu Aug 6, 7:04pm

Thu Aug 6, 6:04pm

Thu Aug 6, 5:04pm

Thu Aug 6, 4:05pm

Thu Aug 6, 3:04pm

Thu Aug 6, 2:05pm

Thu Aug 6, 1:04pm

Thu Aug 6, 12:04pm

Thu Aug 6, 11:04am

Thu Aug 6, 10:04am

Thu Aug 6, 9:04am

Thu Aug 6, 8:04am

Thu Aug 6, 7:04am

Thu Aug 6, 6:04am

Thu Aug 6, 5:04am

Thu Aug 6, 4:04am

Thu Aug 6, 3:04am

Thu Aug 6, 2:05am

Thu Aug 6, 1:04am

Thu Aug 6, 12:04am

Wed Aug 5, 11:04pm

Wed Aug 5, 10:04pm

Wed Aug 5, 9:04pm

Wed Aug 5, 8:05pm

Wed Aug 5, 7:04pm

Wed Aug 5, 6:04pm

Wed Aug 5, 5:04pm

Wed Aug 5, 4:05pm

Wed Aug 5, 3:04pm

Wed Aug 5, 2:04pm

Wed Aug 5, 1:04pm

Wed Aug 5, 12:04pm

Wed Aug 5, 11:04am

Wed Aug 5, 10:04am

Wed Aug 5, 9:04am

Wed Aug 5, 8:04am

Wed Aug 5, 7:04am

Wed Aug 5, 6:04am

Wed Aug 5, 5:04am

Wed Aug 5, 4:04am

Wed Aug 5, 3:04am

Wed Aug 5, 2:05am

Wed Aug 5, 1:04am

Wed Aug 5, 12:05am

Tue Aug 4, 11:05pm

Tue Aug 4, 10:05pm

Tue Aug 4, 9:04pm

Tue Aug 4, 8:04pm

Tue Aug 4, 7:05pm

Tue Aug 4, 6:05pm

Tue Aug 4, 5:05pm

Tue Aug 4, 4:05pm

Tue Aug 4, 3:04pm

Tue Aug 4, 2:05pm

Tue Aug 4, 1:04pm

Tue Aug 4, 12:05pm

Tue Aug 4, 11:04am

Tue Aug 4, 10:04am

Tue Aug 4, 9:04am

Tue Aug 4, 8:04am

Tue Aug 4, 7:04am

Tue Aug 4, 6:04am

Tue Aug 4, 5:04am

Tue Aug 4, 4:04am

Tue Aug 4, 3:04am

Tue Aug 4, 2:04am

Tue Aug 4, 1:04am

Tue Aug 4, 12:04am

Mon Aug 3, 11:04pm

Mon Aug 3, 10:04pm

Mon Aug 3, 9:04pm

Mon Aug 3, 8:05pm

Mon Aug 3, 7:04pm

Mon Aug 3, 6:04pm

Mon Aug 3, 5:04pm

Mon Aug 3, 4:05pm

Mon Aug 3, 3:04pm

Mon Aug 3, 2:04pm

Mon Aug 3, 1:04pm

Mon Aug 3, 12:05pm

Mon Aug 3, 11:04am

Mon Aug 3, 10:04am

Mon Aug 3, 9:05am

Mon Aug 3, 8:04am

Mon Aug 3, 7:04am

Mon Aug 3, 6:04am

Mon Aug 3, 5:04am

Mon Aug 3, 4:04am

Mon Aug 3, 3:04am

Mon Aug 3, 2:04am

Mon Aug 3, 1:04am

Mon Aug 3, 12:05am

Sun Aug 2, 11:04pm

Sun Aug 2, 10:04pm

Sun Aug 2, 9:04pm

Sun Aug 2, 8:04pm

Sun Aug 2, 7:04pm

Sun Aug 2, 6:04pm

Sun Aug 2, 5:04pm

Sun Aug 2, 4:05pm

Sun Aug 2, 3:04pm

Sun Aug 2, 2:05pm

Sun Aug 2, 1:04pm

Sun Aug 2, 12:04pm

Sun Aug 2, 11:04am

Sun Aug 2, 10:04am

Sun Aug 2, 9:05am

Sun Aug 2, 8:05am

Sun Aug 2, 7:04am

Sun Aug 2, 6:04am

Sun Aug 2, 5:04am

Sun Aug 2, 4:05am

Sun Aug 2, 3:04am

Sun Aug 2, 2:04am

Sun Aug 2, 1:04am

Sun Aug 2, 12:05am

Sat Aug 1, 11:04pm

Sat Aug 1, 10:04pm

Sat Aug 1, 9:04pm

Sat Aug 1, 8:05pm

Sat Aug 1, 7:04pm

Sat Aug 1, 6:04pm

Sat Aug 1, 5:05pm

Sat Aug 1, 4:05pm

Sat Aug 1, 3:04pm

Sat Aug 1, 2:04pm

Sat Aug 1, 1:04pm

Sat Aug 1, 11:05am

Sat Aug 1, 10:05am

Sat Aug 1, 9:04am

Sat Aug 1, 8:04am

Sat Aug 1, 7:04am

Sat Aug 1, 6:04am

Sat Aug 1, 5:04am

Sat Aug 1, 4:05am

Sat Aug 1, 3:04am

Sat Aug 1, 2:04am

Sat Aug 1, 1:04am

Sat Aug 1, 12:05am

Fri Jul 31, 11:05pm

Fri Jul 31, 10:04pm

Fri Jul 31, 9:04pm

Fri Jul 31, 8:05pm

Fri Jul 31, 7:05pm

Fri Jul 31, 6:04pm

Fri Jul 31, 5:04pm

Fri Jul 31, 4:05pm

Fri Jul 31, 3:04pm

Fri Jul 31, 2:05pm

Fri Jul 31, 1:04pm

Fri Jul 31, 12:04pm

Meta data:

ID: 6324aeef-ee76-4652-ad20-28579ca53f09
Link: https://api.weather.gov/products/6324aeef-ee76-4652-ad20-28579ca53f09